Time,TemperatureF,DewpointF,PressureIn,WindDirection,WindDirectionDegrees,WindSpeedMPH,WindSpeedGustMPH,Humidity,HourlyPrecipIn,Conditions,Clouds,dailyrainin,SoftwareType,DateUTC
2013-07-12 00:01:00,57.0,45.3,29.79,ESE,107,0.0,2.0,65,0.00,,,0.01,meteohub,2013-07-12 06:01:00,
2013-07-12 00:06:00,56.8,45.1,29.79,ESE,119,1.0,4.0,65,0.00,,,0.01,meteohub,2013-07-12 06:06:00,
2013-07-12 00:11:00,56.7,45.0,29.79,ESE,120,2.0,4.0,65,0.00,,,0.01,meteohub,2013-07-12 06:11:00,
2013-07-12 00:16:00,56.1,45.0,29.79,ESE,122,1.0,4.0,66,0.00,,,0.01,meteohub,2013-07-12 06:16:00,
2013-07-12 00:21:00,55.9,44.8,29.79,ESE,120,1.0,6.0,66,0.00,,,0.01,meteohub,2013-07-12 06:21:00,
2013-07-12 00:26:00,55.9,44.8,29.79,ESE,122,1.0,6.0,66,0.00,,,0.01,meteohub,2013-07-12 06:26:00,
2013-07-12 00:31:00,55.8,45.0,29.80,ESE,121,1.0,4.0,67,0.00,,,0.01,meteohub,2013-07-12 06:31:00,
2013-07-12 00:36:00,55.8,45.0,29.80,ESE,103,1.0,4.0,67,0.00,,,0.01,meteohub,2013-07-12 06:36:00,
2013-07-12 00:41:00,55.8,45.3,29.80,ESE,105,1.0,4.0,68,0.00,,,0.01,meteohub,2013-07-12 06:41:00,
2013-07-12 00:46:00,55.8,45.3,29.80,ESE,110,0.0,4.0,68,0.00,,,0.01,meteohub,2013-07-12 06:46:00,
2013-07-12 00:52:00,55.6,45.5,29.80,ESE,110,1.0,4.0,69,0.00,,,0.01,meteohub,2013-07-12 06:52:00,
2013-07-12 00:57:00,55.2,44.8,29.80,ESE,110,0.0,3.0,68,0.00,,,0.01,meteohub,2013-07-12 06:57:00,
2013-07-12 01:02:00,55.0,45.1,29.80,ESE,110,1.0,2.0,69,0.00,,,0.01,meteohub,2013-07-12 07:02:00,
2013-07-12 01:07:00,55.0,45.1,29.80,ESE,110,0.0,2.0,69,0.00,,,0.01,meteohub,2013-07-12 07:07:00,
2013-07-12 01:12:00,54.9,44.4,29.80,ESE,110,1.0,2.0,68,0.00,,,0.01,meteohub,2013-07-12 07:12:00,
2013-07-12 01:17:00,54.7,44.8,29.80,ESE,110,1.0,2.0,69,0.00,,,0.01,meteohub,2013-07-12 07:17:00,
2013-07-12 01:22:00,54.1,44.6,29.80,ESE,110,1.0,2.0,70,0.00,,,0.01,meteohub,2013-07-12 07:22:00,
2013-07-12 01:27:00,54.0,45.1,29.80,ESE,109,1.0,3.0,72,0.00,,,0.01,meteohub,2013-07-12 07:27:00,
2013-07-12 01:32:00,53.8,45.0,29.80,ESE,109,2.0,3.0,72,0.00,,,0.01,meteohub,2013-07-12 07:32:00,
2013-07-12 01:37:00,53.8,45.7,29.79,ESE,108,1.0,3.0,74,0.00,,,0.01,meteohub,2013-07-12 07:37:00,
2013-07-12 01:42:00,53.6,45.1,29.79,ESE,108,0.0,3.0,73,0.00,,,0.01,meteohub,2013-07-12 07:42:00,
2013-07-12 01:47:00,53.4,45.3,29.79,ESE,108,1.0,3.0,74,0.00,,,0.01,meteohub,2013-07-12 07:47:00,
2013-07-12 01:52:00,53.2,45.1,29.79,ESE,108,2.0,3.0,74,0.00,,,0.01,meteohub,2013-07-12 07:52:00,
2013-07-12 01:57:00,53.2,44.8,29.79,ESE,107,3.0,4.0,73,0.00,,,0.01,meteohub,2013-07-12 07:57:00,
2013-07-12 02:02:00,53.4,45.3,29.79,NNE,22,2.0,4.0,74,0.00,,,0.01,meteohub,2013-07-12 08:02:00,
2013-07-12 02:07:00,53.4,45.7,29.79,NE,47,0.0,5.0,75,0.00,,,0.01,meteohub,2013-07-12 08:07:00,
2013-07-12 02:12:00,53.2,44.8,29.80,East,86,0.0,5.0,73,0.00,,,0.01,meteohub,2013-07-12 08:12:00,
2013-07-12 02:17:00,52.7,45.0,29.79,East,86,0.0,5.0,75,0.00,,,0.01,meteohub,2013-07-12 08:17:00,
2013-07-12 02:22:00,52.3,45.0,29.79,East,88,0.0,3.0,76,0.00,,,0.01,meteohub,2013-07-12 08:22:00,
2013-07-12 02:27:00,52.2,45.1,29.79,East,85,1.0,3.0,77,0.00,,,0.01,meteohub,2013-07-12 08:27:00,
2013-07-12 02:32:00,52.0,45.0,29.79,East,85,0.0,3.0,77,0.00,,,0.01,meteohub,2013-07-12 08:32:00,
2013-07-12 02:37:00,51.6,44.6,29.78,East,92,2.0,4.0,77,0.00,,,0.01,meteohub,2013-07-12 08:37:00,
2013-07-12 02:42:00,51.4,44.4,29.78,East,92,2.0,4.0,77,0.00,,,0.01,meteohub,2013-07-12 08:42:00,
2013-07-12 02:47:00,51.4,44.8,29.78,ESE,117,0.0,4.0,78,0.00,,,0.01,meteohub,2013-07-12 08:47:00,
2013-07-12 02:52:00,51.4,44.8,29.78,ESE,112,2.0,3.0,78,0.00,,,0.01,meteohub,2013-07-12 08:52:00,
2013-07-12 02:57:00,51.3,44.6,29.78,ESE,108,1.0,3.0,78,0.00,,,0.01,meteohub,2013-07-12 08:57:00,
2013-07-12 03:02:00,51.3,44.6,29.77,ESE,108,1.0,3.0,78,0.00,,,0.01,meteohub,2013-07-12 09:02:00,
2013-07-12 03:07:00,51.3,45.0,29.78,NE,35,2.0,3.0,79,0.00,,,0.01,meteohub,2013-07-12 09:07:00,
2013-07-12 03:12:00,51.1,44.8,29.78,NE,40,1.0,3.0,79,0.00,,,0.01,meteohub,2013-07-12 09:12:00,
2013-07-12 03:17:00,50.9,44.6,29.79,ESE,104,4.0,4.0,79,0.00,,,0.01,meteohub,2013-07-12 09:17:00,
2013-07-12 03:22:00,50.9,44.6,29.78,ESE,115,0.0,5.0,79,0.00,,,0.01,meteohub,2013-07-12 09:22:00,
2013-07-12 03:27:00,50.7,44.4,29.78,ESE,115,1.0,5.0,79,0.00,,,0.01,meteohub,2013-07-12 09:27:00,
2013-07-12 03:32:00,50.7,44.1,29.78,ESE,115,1.0,5.0,78,0.00,,,0.01,meteohub,2013-07-12 09:32:00,
2013-07-12 03:37:00,50.5,44.2,29.78,ENE,58,1.0,3.0,79,0.00,,,0.01,meteohub,2013-07-12 09:37:00,
2013-07-12 03:42:00,50.4,44.1,29.78,ENE,58,0.0,3.0,79,0.00,,,0.01,meteohub,2013-07-12 09:42:00,
2013-07-12 03:47:00,50.4,44.1,29.79,NNE,28,2.0,3.0,79,0.00,,,0.01,meteohub,2013-07-12 09:47:00,
2013-07-12 03:52:00,50.2,44.2,29.79,NNE,28,1.0,3.0,80,0.00,,,0.01,meteohub,2013-07-12 09:52:00,
2013-07-12 03:57:00,49.8,43.5,29.79,SE,128,2.0,3.0,79,0.00,,,0.01,meteohub,2013-07-12 09:57:00,
2013-07-12 04:02:00,49.6,43.7,29.79,NE,46,0.0,4.0,80,0.00,,,0.01,meteohub,2013-07-12 10:02:00,
2013-07-12 04:07:00,49.5,43.2,29.79,ESE,105,2.0,4.0,79,0.00,,,0.01,meteohub,2013-07-12 10:07:00,
2013-07-12 04:12:00,49.3,43.3,29.79,ESE,105,0.0,4.0,80,0.00,,,0.01,meteohub,2013-07-12 10:12:00,
2013-07-12 04:17:00,49.3,43.3,29.79,ESE,114,2.0,3.0,80,0.00,,,0.01,meteohub,2013-07-12 10:17:00,
2013-07-12 04:22:00,49.1,43.5,29.79,ENE,57,3.0,6.0,81,0.00,,,0.01,meteohub,2013-07-12 10:22:00,
2013-07-12 04:27:00,49.3,44.1,29.79,ENE,65,1.0,6.0,82,0.00,,,0.01,meteohub,2013-07-12 10:27:00,
2013-07-12 04:32:00,49.3,43.7,29.79,ESE,122,1.0,6.0,81,0.00,,,0.01,meteohub,2013-07-12 10:32:00,
2013-07-12 04:37:00,49.3,43.7,29.79,NE,55,2.0,4.0,81,0.00,,,0.01,meteohub,2013-07-12 10:37:00,
2013-07-12 04:42:00,49.3,44.1,29.80,NE,41,0.0,4.0,82,0.00,,,0.01,meteohub,2013-07-12 10:42:00,
2013-07-12 04:48:00,49.5,44.2,29.79,East,86,2.0,4.0,82,0.00,,,0.01,meteohub,2013-07-12 10:48:00,
2013-07-12 04:53:00,49.5,43.9,29.80,East,86,0.0,4.0,81,0.00,,,0.01,meteohub,2013-07-12 10:53:00,
2013-07-12 04:58:00,49.5,43.5,29.80,East,86,0.0,2.0,80,0.00,,,0.01,meteohub,2013-07-12 10:58:00,
2013-07-12 05:03:00,49.5,43.9,29.80,East,86,0.0,2.0,81,0.00,,,0.01,meteohub,2013-07-12 11:03:00,
2013-07-12 05:08:00,49.3,43.7,29.81,East,86,1.0,1.0,81,0.00,,,0.01,meteohub,2013-07-12 11:08:00,
2013-07-12 05:13:00,48.9,43.3,29.81,East,86,0.0,2.0,81,0.00,,,0.01,meteohub,2013-07-12 11:13:00,
2013-07-12 05:18:00,48.7,43.5,29.81,East,86,0.0,2.0,82,0.00,,,0.01,meteohub,2013-07-12 11:18:00,
2013-07-12 05:23:00,48.7,43.5,29.81,East,86,1.0,2.0,82,0.00,,,0.01,meteohub,2013-07-12 11:23:00,
2013-07-12 05:28:00,48.4,43.5,29.81,ESE,113,2.0,2.0,83,0.00,,,0.01,meteohub,2013-07-12 11:28:00,
2013-07-12 05:33:00,48.6,43.7,29.81,SE,129,0.0,3.0,83,0.00,,,0.01,meteohub,2013-07-12 11:33:00,
2013-07-12 05:38:00,48.7,43.9,29.81,SE,129,0.0,4.0,83,0.00,,,0.01,meteohub,2013-07-12 11:38:00,
2013-07-12 05:43:00,48.7,43.9,29.81,SE,129,1.0,4.0,83,0.00,,,0.01,meteohub,2013-07-12 11:43:00,
2013-07-12 05:48:00,48.7,43.9,29.82,SE,129,0.0,4.0,83,0.00,,,0.01,meteohub,2013-07-12 11:48:00,
2013-07-12 05:53:00,48.7,43.9,29.82,SE,129,0.0,2.0,83,0.00,,,0.01,meteohub,2013-07-12 11:53:00,
2013-07-12 05:58:00,48.7,43.9,29.82,SE,129,1.0,2.0,83,0.00,,,0.01,meteohub,2013-07-12 11:58:00,
2013-07-12 06:03:00,48.7,43.9,29.82,SE,129,0.0,2.0,83,0.00,,,0.01,meteohub,2013-07-12 12:03:00,
2013-07-12 06:09:00,48.7,44.1,29.82,SE,129,1.0,2.0,84,0.00,,,0.01,meteohub,2013-07-12 12:09:00,
2013-07-12 06:14:00,48.9,44.1,29.81,SE,129,1.0,2.0,83,0.00,,,0.01,meteohub,2013-07-12 12:14:00,
2013-07-12 06:19:00,48.9,44.1,29.81,SE,129,0.0,2.0,83,0.00,,,0.01,meteohub,2013-07-12 12:19:00,
2013-07-12 06:24:00,49.1,44.2,29.81,SE,129,1.0,2.0,83,0.00,,,0.01,meteohub,2013-07-12 12:24:00,
2013-07-12 06:29:00,49.3,44.4,29.81,SE,129,0.0,2.0,83,0.00,,,0.01,meteohub,2013-07-12 12:29:00,
2013-07-12 06:34:00,49.5,44.6,29.81,SE,129,0.0,2.0,83,0.00,,,0.01,meteohub,2013-07-12 12:34:00,
2013-07-12 06:39:00,49.6,44.8,29.81,SE,129,1.0,2.0,83,0.00,,,0.01,meteohub,2013-07-12 12:39:00,
2013-07-12 06:44:00,49.8,44.6,29.81,SE,129,0.0,2.0,82,0.00,,,0.01,meteohub,2013-07-12 12:44:00,
2013-07-12 06:49:00,50.2,45.0,29.81,SE,129,0.0,2.0,82,0.00,,,0.01,meteohub,2013-07-12 12:49:00,
2013-07-12 06:54:00,50.4,44.8,29.81,SE,129,0.0,2.0,81,0.00,,,0.01,meteohub,2013-07-12 12:54:00,
2013-07-12 06:59:00,50.4,45.1,29.81,SE,129,0.0,2.0,82,0.00,,,0.01,meteohub,2013-07-12 12:59:00,
2013-07-12 07:04:00,50.5,45.3,29.82,SE,129,0.0,2.0,82,0.00,,,0.01,meteohub,2013-07-12 13:04:00,
2013-07-12 07:09:00,50.5,45.3,29.81,SE,129,0.0,2.0,82,0.00,,,0.01,meteohub,2013-07-12 13:09:00,
2013-07-12 07:14:00,50.5,45.5,29.81,SE,129,0.0,2.0,83,0.00,,,0.01,meteohub,2013-07-12 13:14:00,
2013-07-12 07:19:00,50.5,45.5,29.81,SE,129,2.0,2.0,83,0.00,,,0.01,meteohub,2013-07-12 13:19:00,
2013-07-12 07:25:00,50.7,45.7,29.81,SE,129,0.0,3.0,83,0.00,,,0.01,meteohub,2013-07-12 13:25:00,
2013-07-12 07:30:00,51.1,45.9,29.81,SE,129,2.0,3.0,82,0.00,,,0.01,meteohub,2013-07-12 13:30:00,
2013-07-12 07:35:00,51.4,46.2,29.81,NE,35,0.0,3.0,82,0.00,,,0.01,meteohub,2013-07-12 13:35:00,
2013-07-12 07:40:00,52.2,46.6,29.81,ESE,117,2.0,3.0,81,0.00,,,0.01,meteohub,2013-07-12 13:40:00,
2013-07-12 07:45:00,52.9,46.9,29.81,ENE,62,0.0,6.0,80,0.00,,,0.01,meteohub,2013-07-12 13:45:00,
2013-07-12 07:50:00,53.8,47.1,29.81,ESE,115,1.0,6.0,78,0.00,,,0.01,meteohub,2013-07-12 13:50:00,
2013-07-12 07:55:00,54.3,47.7,29.80,SE,130,1.0,6.0,78,0.00,,,0.01,meteohub,2013-07-12 13:55:00,
2013-07-12 08:00:00,54.9,47.5,29.80,SE,130,2.0,4.0,76,0.00,,,0.01,meteohub,2013-07-12 14:00:00,
2013-07-12 08:05:00,55.6,47.8,29.80,SE,135,2.0,4.0,75,0.00,,,0.01,meteohub,2013-07-12 14:05:00,
2013-07-12 08:10:00,56.5,47.5,29.80,SE,129,2.0,4.0,72,0.00,,,0.01,meteohub,2013-07-12 14:10:00,
2013-07-12 08:15:00,57.4,47.7,29.80,ESE,120,1.0,4.0,70,0.00,,,0.01,meteohub,2013-07-12 14:15:00,
2013-07-12 08:20:00,57.7,47.7,29.80,East,92,0.0,4.0,69,0.00,,,0.01,meteohub,2013-07-12 14:20:00,
2013-07-12 08:25:00,58.3,48.2,29.80,East,92,0.0,3.0,69,0.00,,,0.01,meteohub,2013-07-12 14:25:00,
2013-07-12 08:30:00,58.5,49.1,29.79,East,92,0.0,2.0,71,0.00,,,0.01,meteohub,2013-07-12 14:30:00,
2013-07-12 08:36:00,58.5,48.4,29.79,East,92,1.0,1.0,69,0.00,,,0.01,meteohub,2013-07-12 14:36:00,
2013-07-12 08:41:00,58.8,47.1,29.79,East,94,2.0,2.0,65,0.00,,,0.01,meteohub,2013-07-12 14:41:00,
2013-07-12 08:46:00,59.5,48.2,29.79,SSE,164,0.0,3.0,66,0.00,,,0.01,meteohub,2013-07-12 14:46:00,
2013-07-12 08:51:00,60.3,48.4,29.79,SSE,164,0.0,3.0,65,0.00,,,0.01,meteohub,2013-07-12 14:51:00,
2013-07-12 08:56:00,61.0,48.4,29.79,SSE,164,0.0,3.0,63,0.00,,,0.01,meteohub,2013-07-12 14:56:00,
2013-07-12 09:01:00,61.9,48.2,29.79,NNW,334,0.0,3.0,61,0.00,,,0.01,meteohub,2013-07-12 15:01:00,
2013-07-12 09:06:00,62.6,48.6,29.79,NNW,336,1.0,3.0,60,0.00,,,0.01,meteohub,2013-07-12 15:06:00,
2013-07-12 09:11:00,63.3,46.4,29.79,NNW,338,0.0,3.0,54,0.00,,,0.01,meteohub,2013-07-12 15:11:00,
2013-07-12 09:16:00,64.0,45.5,29.79,NNW,338,2.0,3.0,51,0.00,,,0.01,meteohub,2013-07-12 15:16:00,
2013-07-12 09:21:00,64.8,44.6,29.78,SSE,151,0.0,5.0,48,0.00,,,0.01,meteohub,2013-07-12 15:21:00,
2013-07-12 09:26:00,65.5,46.9,29.78,West,268,3.0,5.0,51,0.00,,,0.01,meteohub,2013-07-12 15:26:00,
2013-07-12 09:31:00,66.2,45.3,29.78,WSW,251,2.0,5.0,47,0.00,,,0.01,meteohub,2013-07-12 15:31:00,
2013-07-12 09:36:00,66.7,45.3,29.78,WNW,291,1.0,4.0,46,0.00,,,0.01,meteohub,2013-07-12 15:36:00,
2013-07-12 09:41:00,67.3,45.9,29.78,East,88,2.0,4.0,46,0.00,,,0.01,meteohub,2013-07-12 15:41:00,
2013-07-12 09:46:00,67.6,46.8,29.78,ESE,113,0.0,4.0,47,0.00,,,0.01,meteohub,2013-07-12 15:46:00,
2013-07-12 09:52:00,67.8,45.1,29.78,NW,313,6.0,6.0,44,0.00,,,0.01,meteohub,2013-07-12 15:52:00,
2013-07-12 09:57:00,68.2,47.7,29.78,NNW,338,0.0,6.0,48,0.00,,,0.01,meteohub,2013-07-12 15:57:00,
2013-07-12 10:02:00,68.2,46.0,29.78,NNW,338,2.0,6.0,45,0.00,,,0.01,meteohub,2013-07-12 16:02:00,
2013-07-12 10:07:00,68.4,46.2,29.78,West,274,2.0,6.0,45,0.00,,,0.01,meteohub,2013-07-12 16:07:00,
2013-07-12 10:12:00,68.4,46.8,29.78,WNW,301,0.0,3.0,46,0.00,,,0.01,meteohub,2013-07-12 16:12:00,
2013-07-12 10:17:00,68.5,45.1,29.78,NW,308,0.0,4.0,43,0.00,,,0.01,meteohub,2013-07-12 16:17:00,
2013-07-12 10:22:00,68.7,46.6,29.78,WSW,238,2.0,4.0,45,0.00,,,0.01,meteohub,2013-07-12 16:22:00,
2013-07-12 10:27:00,68.9,47.3,29.78,SSW,207,2.0,4.0,46,0.00,,,0.01,meteohub,2013-07-12 16:27:00,
2013-07-12 10:32:00,68.7,44.8,29.78,SSW,207,0.0,4.0,42,0.00,,,0.01,meteohub,2013-07-12 16:32:00,
2013-07-12 10:37:00,69.1,45.0,29.77,SSE,161,0.0,3.0,42,0.00,,,0.01,meteohub,2013-07-12 16:37:00,
2013-07-12 10:42:00,69.3,45.1,29.78,SSE,161,0.0,3.0,42,0.00,,,0.01,meteohub,2013-07-12 16:42:00,
2013-07-12 10:47:00,69.4,44.1,29.78,SSE,161,1.0,3.0,40,0.00,,,0.01,meteohub,2013-07-12 16:47:00,
2013-07-12 10:52:00,69.6,45.0,29.78,South,177,1.0,3.0,41,0.00,,,0.01,meteohub,2013-07-12 16:52:00,
2013-07-12 10:57:00,69.6,44.2,29.78,SE,143,2.0,3.0,40,0.00,,,0.01,meteohub,2013-07-12 16:57:00,
2013-07-12 11:02:00,69.8,45.0,29.78,SW,222,2.0,3.0,41,0.00,,,0.01,meteohub,2013-07-12 17:02:00,
2013-07-12 11:07:00,70.0,43.9,29.78,South,177,1.0,4.0,39,0.00,,,0.01,meteohub,2013-07-12 17:07:00,
2013-07-12 11:12:00,70.0,44.6,29.78,South,172,1.0,5.0,40,0.00,,,0.01,meteohub,2013-07-12 17:12:00,
2013-07-12 11:17:00,70.2,44.8,29.78,ESE,103,2.0,5.0,40,0.00,,,0.01,meteohub,2013-07-12 17:17:00,
2013-07-12 11:22:00,70.5,45.0,29.78,WNW,295,4.0,5.0,40,0.00,,,0.01,meteohub,2013-07-12 17:22:00,
2013-07-12 11:27:00,70.9,44.8,29.78,NNW,337,2.0,7.0,39,0.00,,,0.01,meteohub,2013-07-12 17:27:00,
2013-07-12 11:33:00,71.1,44.8,29.77,West,274,0.0,7.0,39,0.00,,,0.01,meteohub,2013-07-12 17:33:00,
2013-07-12 11:38:00,71.2,44.2,29.77,WNW,292,1.0,7.0,38,0.00,,,0.01,meteohub,2013-07-12 17:38:00,
2013-07-12 11:44:00,71.2,45.7,29.77,NNW,348,1.0,4.0,40,0.00,,,0.01,meteohub,2013-07-12 17:44:00,
2013-07-12 11:49:00,71.1,44.8,29.77,NNE,30,2.0,4.0,39,0.00,,,0.01,meteohub,2013-07-12 17:49:00,
2013-07-12 11:54:00,71.1,44.8,29.77,NNW,338,1.0,6.0,39,0.00,,,0.01,meteohub,2013-07-12 17:54:00,
2013-07-12 11:59:00,71.1,46.2,29.77,WNW,297,1.0,6.0,41,0.00,,,0.01,meteohub,2013-07-12 17:59:00,
2013-07-12 12:05:00,70.9,45.3,29.77,WNW,296,0.0,5.0,40,0.00,,,0.01,meteohub,2013-07-12 18:05:00,
2013-07-12 12:10:00,70.7,45.9,29.77,WNW,296,0.0,5.0,41,0.00,,,0.01,meteohub,2013-07-12 18:10:00,
2013-07-12 12:15:00,70.3,47.5,29.78,WNW,296,1.0,2.0,44,0.00,,,0.01,meteohub,2013-07-12 18:15:00,
2013-07-12 12:20:00,70.0,45.9,29.78,East,99,6.0,6.0,42,0.00,,,0.01,meteohub,2013-07-12 18:20:00,
2013-07-12 12:26:00,69.3,44.6,29.79,East,95,3.0,10.0,41,0.00,,,0.01,meteohub,2013-07-12 18:26:00,
2013-07-12 12:32:00,68.0,45.3,29.80,NNW,346,0.0,10.0,44,0.00,,,0.01,meteohub,2013-07-12 18:32:00,
2013-07-12 12:37:00,66.4,48.7,29.80,WSW,244,4.0,9.0,53,0.00,,,0.01,meteohub,2013-07-12 18:37:00,
2013-07-12 12:42:00,63.7,49.1,29.79,South,182,0.0,9.0,59,0.06,,,0.07,meteohub,2013-07-12 18:42:00,
2013-07-12 12:47:00,61.7,52.5,29.78,SE,142,2.0,8.0,72,0.07,,,0.08,meteohub,2013-07-12 18:47:00,
2013-07-12 12:52:00,59.5,52.0,29.79,SSW,199,0.0,8.0,76,0.08,,,0.09,meteohub,2013-07-12 18:52:00,
2013-07-12 12:57:00,58.5,52.0,29.80,NE,38,1.0,4.0,79,0.09,,,0.10,meteohub,2013-07-12 18:57:00,
2013-07-12 13:02:00,57.7,53.2,29.79,ESE,107,5.0,5.0,85,0.11,,,0.12,meteohub,2013-07-12 19:02:00,
2013-07-12 13:07:00,57.4,52.3,29.79,SE,125,3.0,7.0,83,0.11,,,0.12,meteohub,2013-07-12 19:07:00,
2013-07-12 13:12:00,57.7,53.2,29.79,ESE,107,0.0,7.0,85,0.11,,,0.12,meteohub,2013-07-12 19:12:00,
2013-07-12 13:17:00,58.3,53.8,29.79,SE,132,2.0,7.0,85,0.11,,,0.12,meteohub,2013-07-12 19:17:00,
2013-07-12 13:22:00,58.5,51.3,29.79,SE,132,0.0,4.0,77,0.11,,,0.12,meteohub,2013-07-12 19:22:00,
2013-07-12 13:27:00,58.8,54.7,29.79,SW,232,2.0,3.0,86,0.11,,,0.12,meteohub,2013-07-12 19:27:00,
2013-07-12 13:32:00,59.2,54.0,29.81,SW,232,0.0,3.0,83,0.11,,,0.12,meteohub,2013-07-12 19:32:00,
2013-07-12 13:37:00,59.2,54.7,29.81,SW,232,0.0,2.0,85,0.07,,,0.12,meteohub,2013-07-12 19:37:00,
2013-07-12 13:42:00,59.4,56.1,29.80,NW,305,1.0,2.0,89,0.05,,,0.12,meteohub,2013-07-12 19:42:00,
2013-07-12 13:47:00,59.2,55.0,29.81,WNW,299,1.0,2.0,86,0.04,,,0.12,meteohub,2013-07-12 19:47:00,
2013-07-12 13:52:00,58.8,54.3,29.82,WNW,299,1.0,2.0,85,0.03,,,0.12,meteohub,2013-07-12 19:52:00,
2013-07-12 13:57:00,58.6,53.4,29.83,West,276,3.0,3.0,83,0.01,,,0.12,meteohub,2013-07-12 19:57:00,
2013-07-12 14:03:00,58.5,53.1,29.83,NNW,338,0.0,9.0,82,0.00,,,0.12,meteohub,2013-07-12 20:03:00,
2013-07-12 14:08:00,58.1,53.2,29.82,ESE,120,4.0,9.0,84,0.00,,,0.12,meteohub,2013-07-12 20:08:00,
2013-07-12 14:13:00,57.7,52.7,29.82,ESE,119,2.0,9.0,83,0.00,,,0.12,meteohub,2013-07-12 20:13:00,
2013-07-12 14:19:00,57.7,52.7,29.81,ESE,118,3.0,5.0,83,0.00,,,0.12,meteohub,2013-07-12 20:19:00,
2013-07-12 14:24:00,58.1,52.0,29.80,ESE,118,4.0,5.0,80,0.00,,,0.12,meteohub,2013-07-12 20:24:00,
2013-07-12 14:29:00,58.8,52.3,29.80,ESE,116,3.0,6.0,79,0.00,,,0.12,meteohub,2013-07-12 20:29:00,
2013-07-12 14:34:00,59.5,52.0,29.80,ESE,121,4.0,6.0,76,0.00,,,0.12,meteohub,2013-07-12 20:34:00,
2013-07-12 14:40:00,59.9,52.7,29.80,ESE,117,2.0,9.0,77,0.00,,,0.12,meteohub,2013-07-12 20:40:00,
2013-07-12 14:45:00,60.3,51.6,29.81,WNW,300,2.0,9.0,73,0.00,,,0.12,meteohub,2013-07-12 20:45:00,
2013-07-12 14:51:00,60.6,52.7,29.81,NW,319,1.0,9.0,75,0.00,,,0.12,meteohub,2013-07-12 20:51:00,
2013-07-12 14:56:00,60.3,52.7,29.82,WSW,242,2.0,8.0,76,0.00,,,0.12,meteohub,2013-07-12 20:56:00,
2013-07-12 15:02:00,59.7,52.5,29.83,SW,235,3.0,8.0,77,0.00,,,0.12,meteohub,2013-07-12 21:02:00,
2013-07-12 15:07:00,59.4,52.2,29.84,West,263,1.0,7.0,77,0.00,,,0.12,meteohub,2013-07-12 21:07:00,
2013-07-12 15:12:00,59.2,52.0,29.84,SSW,211,3.0,6.0,77,0.00,,,0.12,meteohub,2013-07-12 21:12:00,
2013-07-12 15:17:00,58.8,50.9,29.84,SW,223,2.0,6.0,75,0.00,,,0.12,meteohub,2013-07-12 21:17:00,
2013-07-12 15:22:00,58.6,51.1,29.84,WSW,247,1.0,5.0,76,0.00,,,0.12,meteohub,2013-07-12 21:22:00,
2013-07-12 15:27:00,58.6,51.4,29.84,WSW,252,0.0,5.0,77,0.00,,,0.12,meteohub,2013-07-12 21:27:00,
2013-07-12 15:33:00,58.6,52.2,29.85,WSW,253,0.0,5.0,79,0.00,,,0.12,meteohub,2013-07-12 21:33:00,
2013-07-12 15:38:00,58.5,52.0,29.86,WSW,244,1.0,4.0,79,0.00,,,0.12,meteohub,2013-07-12 21:38:00,
2013-07-12 15:43:00,58.3,52.2,29.85,WSW,242,2.0,4.0,80,0.00,,,0.12,meteohub,2013-07-12 21:43:00,
2013-07-12 15:48:00,58.3,51.1,29.85,WSW,241,2.0,4.0,77,0.00,,,0.12,meteohub,2013-07-12 21:48:00,
2013-07-12 15:54:00,58.3,51.8,29.86,West,268,2.0,4.0,79,0.00,,,0.12,meteohub,2013-07-12 21:54:00,
2013-07-12 15:59:00,58.1,52.3,29.86,West,267,3.0,4.0,81,0.00,,,0.12,meteohub,2013-07-12 21:59:00,
2013-07-12 16:05:00,57.9,51.1,29.87,SW,234,1.0,4.0,78,0.00,,,0.12,meteohub,2013-07-12 22:05:00,
2013-07-12 16:10:00,57.9,51.8,29.88,SSW,208,0.0,4.0,80,0.00,,,0.12,meteohub,2013-07-12 22:10:00,
2013-07-12 16:15:00,57.7,52.3,29.88,SSW,208,0.0,4.0,82,0.00,,,0.13,meteohub,2013-07-12 22:15:00,
2013-07-12 16:20:00,57.2,52.7,29.88,SSW,208,2.0,4.0,85,0.02,,,0.14,meteohub,2013-07-12 22:20:00,
2013-07-12 16:26:00,56.7,52.9,29.89,SSW,208,0.0,2.0,87,0.02,,,0.14,meteohub,2013-07-12 22:26:00,
2013-07-12 16:31:00,56.3,52.9,29.90,SSW,208,0.0,2.0,88,0.03,,,0.15,meteohub,2013-07-12 22:31:00,
2013-07-12 16:36:00,56.1,52.7,29.89,SSW,208,0.0,2.0,88,0.03,,,0.15,meteohub,2013-07-12 22:36:00,
2013-07-12 16:42:00,56.1,52.9,29.89,SSW,208,0.0,2.0,89,0.04,,,0.16,meteohub,2013-07-12 22:42:00,
2013-07-12 16:47:00,56.1,52.9,29.88,SSW,208,1.0,1.0,89,0.04,,,0.16,meteohub,2013-07-12 22:47:00,
2013-07-12 16:52:00,56.1,52.7,29.88,East,86,1.0,3.0,88,0.04,,,0.16,meteohub,2013-07-12 22:52:00,
2013-07-12 16:57:00,56.3,52.9,29.88,ESE,103,1.0,5.0,88,0.04,,,0.16,meteohub,2013-07-12 22:57:00,
2013-07-12 17:03:00,56.7,52.9,29.88,ESE,112,1.0,5.0,87,0.04,,,0.16,meteohub,2013-07-12 23:03:00,
2013-07-12 17:08:00,57.0,53.2,29.87,ESE,114,3.0,3.0,87,0.04,,,0.16,meteohub,2013-07-12 23:08:00,
2013-07-12 17:13:00,57.4,52.9,29.87,SE,128,5.0,5.0,85,0.03,,,0.16,meteohub,2013-07-12 23:13:00,
2013-07-12 17:18:00,57.7,52.7,29.87,NE,34,2.0,6.0,83,0.03,,,0.16,meteohub,2013-07-12 23:18:00,
2013-07-12 17:23:00,58.1,53.2,29.86,ENE,78,0.0,6.0,84,0.02,,,0.16,meteohub,2013-07-12 23:23:00,
2013-07-12 17:29:00,58.5,52.3,29.86,SE,133,3.0,6.0,80,0.01,,,0.16,meteohub,2013-07-12 23:29:00,
2013-07-12 17:34:00,58.8,52.7,29.86,ESE,111,3.0,5.0,80,0.01,,,0.16,meteohub,2013-07-12 23:34:00,
2013-07-12 17:39:00,59.4,52.5,29.86,ESE,107,3.0,4.0,78,0.00,,,0.16,meteohub,2013-07-12 23:39:00,
2013-07-12 17:44:00,59.7,51.8,29.86,NE,45,0.0,4.0,75,0.00,,,0.16,meteohub,2013-07-12 23:44:00,
2013-07-12 17:50:00,59.9,51.3,29.86,East,87,0.0,4.0,73,0.00,,,0.16,meteohub,2013-07-12 23:50:00,
2013-07-12 17:55:00,60.1,52.5,29.85,ESE,113,1.0,4.0,76,0.00,,,0.16,meteohub,2013-07-12 23:55:00,
2013-07-12 18:00:00,60.3,53.4,29.85,East,98,0.0,4.0,78,0.00,,,0.16,meteohub,2013-07-13 00:00:00,
2013-07-12 18:06:00,60.3,54.1,29.86,East,97,0.0,4.0,80,0.00,,,0.00,meteohub,2013-07-13 00:06:00,
2013-07-12 18:11:00,60.3,54.1,29.86,East,97,0.0,3.0,80,0.00,,,0.00,meteohub,2013-07-13 00:11:00,
2013-07-12 18:17:00,60.1,53.6,29.86,East,97,0.0,2.0,79,0.00,,,0.00,meteohub,2013-07-13 00:17:00,
2013-07-12 18:22:00,59.9,54.1,29.86,East,96,0.0,2.0,81,0.00,,,0.00,meteohub,2013-07-13 00:22:00,
2013-07-12 18:27:00,59.5,54.0,29.86,East,96,0.0,2.0,82,0.00,,,0.00,meteohub,2013-07-13 00:27:00,
2013-07-12 18:32:00,59.4,53.2,29.87,SW,226,0.0,3.0,80,0.00,,,0.00,meteohub,2013-07-13 00:32:00,
2013-07-12 18:37:00,59.2,53.4,29.87,SW,230,1.0,3.0,81,0.00,,,0.00,meteohub,2013-07-13 00:37:00,
2013-07-12 18:42:00,59.2,53.4,29.87,WNW,284,3.0,3.0,81,0.00,,,0.00,meteohub,2013-07-13 00:42:00,
2013-07-12 18:47:00,59.0,53.2,29.87,WNW,286,1.0,4.0,81,0.00,,,0.00,meteohub,2013-07-13 00:47:00,
2013-07-12 18:52:00,58.8,53.1,29.88,WNW,284,3.0,4.0,81,0.00,,,0.00,meteohub,2013-07-13 00:52:00,
2013-07-12 18:57:00,58.8,52.7,29.88,West,270,2.0,4.0,80,0.00,,,0.00,meteohub,2013-07-13 00:57:00,
2013-07-12 19:02:00,58.6,52.5,29.88,West,270,1.0,4.0,80,0.00,,,0.00,meteohub,2013-07-13 01:02:00,
2013-07-12 19:07:00,58.6,51.8,29.88,West,269,2.0,4.0,78,0.00,,,0.00,meteohub,2013-07-13 01:07:00,
2013-07-12 19:12:00,58.6,52.5,29.89,WNW,287,0.0,5.0,80,0.00,,,0.00,meteohub,2013-07-13 01:12:00,
2013-07-12 19:17:00,58.6,52.5,29.90,WNW,287,2.0,5.0,80,0.00,,,0.00,meteohub,2013-07-13 01:17:00,
2013-07-12 19:22:00,58.5,52.7,29.90,WNW,287,1.0,5.0,81,0.00,,,0.00,meteohub,2013-07-13 01:22:00,
2013-07-12 19:27:00,58.5,52.7,29.91,West,269,1.0,3.0,81,0.00,,,0.00,meteohub,2013-07-13 01:27:00,
2013-07-12 19:33:00,58.3,52.2,29.91,West,266,0.0,3.0,80,0.00,,,0.00,meteohub,2013-07-13 01:33:00,
2013-07-12 19:38:00,58.1,52.3,29.92,WSW,253,1.0,3.0,81,0.00,,,0.00,meteohub,2013-07-13 01:38:00,
2013-07-12 19:43:00,57.9,52.2,29.92,WSW,253,0.0,3.0,81,0.00,,,0.00,meteohub,2013-07-13 01:43:00,
2013-07-12 19:49:00,57.9,52.7,29.92,WSW,253,0.0,3.0,83,0.00,,,0.00,meteohub,2013-07-13 01:49:00,
2013-07-12 19:54:00,57.7,52.9,29.92,WSW,253,0.0,3.0,84,0.00,,,0.00,meteohub,2013-07-13 01:54:00,
2013-07-12 20:00:00,57.6,52.7,29.92,WSW,253,0.0,1.0,84,0.00,,,0.00,meteohub,2013-07-13 02:00:00,
2013-07-12 20:05:00,57.4,52.5,29.92,WSW,253,0.0,0.0,84,0.00,,,0.00,meteohub,2013-07-13 02:05:00,
2013-07-12 20:10:00,57.2,53.1,29.92,WSW,253,0.0,0.0,86,0.00,,,0.00,meteohub,2013-07-13 02:10:00,
2013-07-12 20:15:00,57.0,52.5,29.92,WSW,253,0.0,0.0,85,0.00,,,0.00,meteohub,2013-07-13 02:15:00,
2013-07-12 20:20:00,56.8,52.3,29.92,WSW,253,0.0,0.0,85,0.00,,,0.00,meteohub,2013-07-13 02:20:00,
2013-07-12 20:25:00,56.5,51.6,29.92,WSW,242,1.0,2.0,84,0.00,,,0.00,meteohub,2013-07-13 02:25:00,
2013-07-12 20:30:00,56.5,52.0,29.92,SW,226,2.0,3.0,85,0.00,,,0.00,meteohub,2013-07-13 02:30:00,
2013-07-12 20:36:00,56.5,51.6,29.93,SSW,207,0.0,4.0,84,0.00,,,0.00,meteohub,2013-07-13 02:36:00,
2013-07-12 20:41:00,56.5,52.0,29.92,ESE,117,0.0,4.0,85,0.00,,,0.00,meteohub,2013-07-13 02:41:00,
2013-07-12 20:47:00,56.5,52.0,29.92,ESE,117,0.0,4.0,85,0.00,,,0.00,meteohub,2013-07-13 02:47:00,
2013-07-12 20:52:00,56.3,51.4,29.92,East,88,0.0,4.0,84,0.00,,,0.00,meteohub,2013-07-13 02:52:00,
2013-07-12 20:57:00,55.9,51.4,29.92,ESE,115,2.0,4.0,85,0.00,,,0.00,meteohub,2013-07-13 02:57:00,
2013-07-12 21:02:00,55.8,51.6,29.92,ESE,116,2.0,3.0,86,0.00,,,0.00,meteohub,2013-07-13 03:02:00,
2013-07-12 21:07:00,55.4,51.3,29.92,ESE,118,2.0,3.0,86,0.00,,,0.00,meteohub,2013-07-13 03:07:00,
2013-07-12 21:12:00,55.2,51.1,29.93,ESE,112,1.0,3.0,86,0.00,,,0.00,meteohub,2013-07-13 03:12:00,
2013-07-12 21:17:00,54.9,50.7,29.93,ESE,121,2.0,4.0,86,0.00,,,0.00,meteohub,2013-07-13 03:17:00,
2013-07-12 21:22:00,54.7,50.9,29.93,ESE,121,0.0,4.0,87,0.00,,,0.00,meteohub,2013-07-13 03:22:00,
2013-07-12 21:28:00,54.3,50.5,29.93,ESE,121,2.0,4.0,87,0.00,,,0.00,meteohub,2013-07-13 03:28:00,
2013-07-12 21:33:00,54.0,50.2,29.93,ESE,115,3.0,3.0,87,0.00,,,0.00,meteohub,2013-07-13 03:33:00,
2013-07-12 21:38:00,53.8,50.0,29.93,SE,125,1.0,4.0,87,0.00,,,0.00,meteohub,2013-07-13 03:38:00,
2013-07-12 21:43:00,53.8,49.6,29.93,SE,125,0.0,4.0,86,0.00,,,0.00,meteohub,2013-07-13 03:43:00,
2013-07-12 21:49:00,53.8,49.6,29.93,SE,125,1.0,4.0,86,0.00,,,0.00,meteohub,2013-07-13 03:49:00,
2013-07-12 21:54:00,53.8,49.6,29.93,ESE,122,2.0,2.0,86,0.00,,,0.00,meteohub,2013-07-13 03:54:00,
2013-07-12 22:00:00,53.6,49.8,29.94,ESE,122,0.0,3.0,87,0.00,,,0.00,meteohub,2013-07-13 04:00:00,
2013-07-12 22:01:00,53.4,49.6,29.94,ESE,122,2.0,4.0,87,0.00,,,0.00,meteohub,2013-07-13 04:01:00,
2013-07-12 22:02:00,53.4,49.6,29.94,ESE,122,0.0,4.0,87,0.00,,,0.00,meteohub,2013-07-13 04:02:00,
2013-07-12 22:05:00,53.4,49.6,29.94,ESE,122,0.0,4.0,87,0.00,,,0.00,meteohub,2013-07-13 04:05:00,
2013-07-12 22:07:00,53.4,49.6,29.94,ESE,122,1.0,4.0,87,0.00,,,0.00,meteohub,2013-07-13 04:07:00,
2013-07-12 22:08:00,53.4,49.6,29.94,ESE,122,2.0,4.0,87,0.00,,,0.00,meteohub,2013-07-13 04:08:00,
2013-07-12 22:13:00,53.4,49.3,29.94,East,100,2.0,2.0,86,0.00,,,0.00,meteohub,2013-07-13 04:13:00,
2013-07-12 22:18:00,53.2,49.5,29.94,SE,125,0.0,3.0,87,0.00,,,0.00,meteohub,2013-07-13 04:18:00,
2013-07-12 22:23:00,53.2,49.1,29.94,SE,125,2.0,3.0,86,0.00,,,0.00,meteohub,2013-07-13 04:23:00,
2013-07-12 22:28:00,53.2,49.1,29.94,SE,125,1.0,3.0,86,0.00,,,0.00,meteohub,2013-07-13 04:28:00,
2013-07-12 22:33:00,53.2,49.1,29.94,SE,125,1.0,3.0,86,0.00,,,0.00,meteohub,2013-07-13 04:33:00,
2013-07-12 22:39:00,53.4,49.6,29.94,SE,125,0.0,3.0,87,0.00,,,0.00,meteohub,2013-07-13 04:39:00,
2013-07-12 22:44:00,53.2,49.1,29.94,SE,125,0.0,3.0,86,0.00,,,0.00,meteohub,2013-07-13 04:44:00,
2013-07-12 22:49:00,53.1,49.3,29.94,SE,125,0.0,3.0,87,0.00,,,0.00,meteohub,2013-07-13 04:49:00,
2013-07-12 22:54:00,53.1,49.3,29.94,SE,125,0.0,3.0,87,0.00,,,0.00,meteohub,2013-07-13 04:54:00,
2013-07-12 22:59:00,52.9,49.1,29.94,SE,125,0.0,3.0,87,0.00,,,0.00,meteohub,2013-07-13 04:59:00,
2013-07-12 23:04:00,52.7,48.9,29.94,SE,125,0.0,1.0,87,0.00,,,0.00,meteohub,2013-07-13 05:04:00,
2013-07-12 23:09:00,52.5,48.7,29.95,ESE,115,0.0,3.0,87,0.00,,,0.00,meteohub,2013-07-13 05:09:00,
2013-07-12 23:14:00,52.5,48.7,29.95,SE,125,1.0,4.0,87,0.00,,,0.00,meteohub,2013-07-13 05:14:00,
2013-07-12 23:19:00,52.3,48.6,29.95,SE,124,0.0,4.0,87,0.00,,,0.00,meteohub,2013-07-13 05:19:00,
2013-07-12 23:24:00,52.3,48.9,29.95,SE,124,0.0,4.0,88,0.00,,,0.00,meteohub,2013-07-13 05:24:00,
2013-07-12 23:29:00,52.3,48.6,29.95,SE,124,2.0,4.0,87,0.00,,,0.00,meteohub,2013-07-13 05:29:00,
2013-07-12 23:34:00,52.2,48.7,29.95,South,172,2.0,3.0,88,0.00,,,0.00,meteohub,2013-07-13 05:34:00,
2013-07-12 23:39:00,52.3,48.6,29.96,SSE,150,1.0,4.0,87,0.00,,,0.00,meteohub,2013-07-13 05:39:00,
2013-07-12 23:44:00,52.3,48.6,29.96,SE,130,1.0,4.0,87,0.00,,,0.00,meteohub,2013-07-13 05:44:00,
2013-07-12 23:49:00,52.3,48.9,29.96,SE,130,1.0,4.0,88,0.00,,,0.00,meteohub,2013-07-13 05:49:00,
2013-07-12 23:54:00,52.3,48.6,29.96,SE,130,0.0,4.0,87,0.00,,,0.00,meteohub,2013-07-13 05:54:00,